Location: Peebles
(55.6412°N, 3.1714°W)
Time: 14:56:06
(UTC+01:00)

deb Agena D - Pass Details

Date: 25 September 2024
Orbit: 793 x 976 km, 99.8° (Epoch: 03 October)

Event Time Altitude Azimuth Distance (km) Brightness Sun altitude
Rises 02:08:45 0° 25° (NNE) 3,500 10.5 -33.8°
Reaches altitude 10° 02:11:41 10° 40° (NE) 2,588 9.5 -33.7°
Maximum altitude 02:16:08 22° 90° (E) 1,886 8.1 -33.4°
Enters shadow 02:16:36 22° 97° (E) 1,899 8.1 -33.4°
